Flight Track Log - Related Links

Times and Time Zones

All times are in EDT time to prevent confusion due to time zone crossing. See the VNR160 flight status page for this flight to view local times or setup timezone preferences in your user account.

Time Position Orientation Groundspeed Altitude Reporting Facility
EDT Latitude Longitude Course Direction KTS MPH feet Rate Location/Type
Wed 10:09:01 PM 37.9811 -84.6775 230° Southwest 185 213 4,600  Level Indianapolis Center
Wed 10:10:02 PM 37.9931 -84.7347 285° West 181 208 6,400 1,475 Climbing Indianapolis Center
Wed 10:11:03 PM 38.0358 -84.7739 324° Northwest 185 213 7,600 1,377 Climbing Indianapolis Center
Wed 10:12:04 PM 38.0858 -84.8178 325° Northwest 213 245 9,200 1,610 Climbing Indianapolis Center
Wed 10:13:00 PM 37.8591 -84.8214 256° West  Level FlightAware Approximate
Wed 10:13:06 PM 38.1378 -84.8617 326° Northwest 223 257 10,900  Level Indianapolis Center
Wed 10:14:07 PM 38.1906 -84.9081 325° Northwest 228 262 12,500 1,475 Climbing Indianapolis Center
Wed 10:15:08 PM 38.2453 -84.9533 327° Northwest 233 268 13,900 1,426 Climbing Indianapolis Center
Wed 10:16:09 PM 38.3097 -85.0131 324° Northwest 243 280 15,400 1,672 Climbing Indianapolis Center
Wed 10:17:10 PM 38.3664 -85.0608 327° Northwest 243 280 17,300 1,561 Climbing Indianapolis Center
Wed 10:18:12 PM 38.4189 -85.1081 325° Northwest 232 267 18,600 1,220 Climbing Indianapolis Center
Wed 10:19:13 PM 38.4708 -85.1522 326° Northwest 224 258 19,800 1,180 Climbing Indianapolis Center
Wed 10:20:14 PM 38.5133 -85.2089 314° West 221 254 21,000 1,082 Climbing Indianapolis Center
Wed 10:21:15 PM 38.5533 -85.2564 317° Northwest 217 250 22,000 1,033 Climbing Indianapolis Center
Wed 10:22:16 PM 38.5992 -85.3122 316° Northwest 225 259 23,100 984 Climbing Indianapolis Center
Wed 10:23:17 PM 38.6575 -85.3778 319° Northwest 238 274 24,000 443 Climbing Indianapolis Center
Wed 10:24:18 PM 38.7208 -85.4306 327° Northwest 267 307 24,000  Level Indianapolis Center
Wed 10:25:19 PM 38.7875 -85.4894 325° Northwest 286 329 24,000  Level Indianapolis Center
Wed 10:26:20 PM 38.8564 -85.5481 326° Northwest 294 338 24,000  Level Indianapolis Center
Wed 10:27:21 PM 38.9381 -85.5922 337° Northwest 315 362 24,000  Level Indianapolis Center
Wed 10:28:22 PM 39.0211 -85.6358 338° Northwest 320 368 24,000  Level Indianapolis Center
Wed 10:29:23 PM 39.1014 -85.6794 337° Northwest 314 361 24,000  Level Indianapolis Center
Wed 10:30:24 PM 39.1817 -85.7233 337° Northwest 313 360 24,000  Level Indianapolis Center
Wed 10:31:25 PM 39.2528 -85.7806 328° Northwest 304 350 24,000  Level Indianapolis Center
Wed 10:32:27 PM 39.3192 -85.8439 324° Northwest 294 338 24,000  Level Indianapolis Center
Wed 10:33:28 PM 39.3847 -85.9083 323° Northwest 295 339 24,000  Level Indianapolis Center
Wed 10:34:29 PM 39.4508 -85.9725 323° Northwest 296 341 24,000  Level Indianapolis Center
Wed 10:35:30 PM 39.5172 -86.0364 323° Northwest 295 339 24,000  Level Indianapolis Center
Wed 10:36:31 PM 39.5842 -86.1019 323° Northwest 299 344 24,000  Level Indianapolis Center
Wed 10:37:32 PM 39.6503 -86.1661 323° Northwest 297 342 24,000  Level Indianapolis Center
Wed 10:38:33 PM 39.7161 -86.2308 323° Northwest 301 346 24,000  Level Indianapolis Center
Wed 10:39:34 PM 39.7939 -86.3083 323° Northwest 295 339 24,000  Level Indianapolis Center
Wed 10:40:35 PM 39.8556 -86.3692 323° Northwest 299 344 24,000  Level Indianapolis Center
Wed 10:41:36 PM 39.9219 -86.4356 323° Northwest 301 346 24,000  Level Indianapolis Center
Wed 10:42:37 PM 39.9897 -86.5031 323° Northwest 303 349 24,000  Level Indianapolis Center
Wed 10:43:38 PM 40.0581 -86.5703 323° Northwest 306 352 24,000  Level Indianapolis Center
Wed 10:44:39 PM 40.1258 -86.6378 323° Northwest 305 351 24,000  Level Indianapolis Center
Wed 10:45:40 PM 40.1936 -86.7058 323° Northwest 306 352 24,000  Level Indianapolis Center
Wed 10:46:45 PM 40.2733 -86.7858 323° Northwest 309 356 24,000  Level Chicago Center
Wed 10:47:46 PM 40.3556 -86.8353 335° Northwest 331 381 24,000  Level Chicago Center
Wed 10:48:47 PM 40.4417 -86.8742 341° North 326 375 24,000  Level Chicago Center
Wed 10:49:49 PM 40.5300 -86.9119 342° North 331 381 24,000  Level Chicago Center
Wed 10:50:50 PM 40.6169 -86.9525 341° North 332 382 24,000  Level Chicago Center
Wed 10:51:51 PM 40.7136 -86.9967 341° North 332 382 24,000  Level Chicago Center
Wed 10:52:52 PM 40.7989 -87.0358 341° North 328 377 24,000  Level Chicago Center
Wed 10:53:53 PM 40.8856 -87.0744 341° North 330 380 24,000  Level Chicago Center
Wed 10:54:54 PM 40.9725 -87.1150 341° North 333 383 24,000  Level Chicago Center
Wed 10:55:56 PM 41.0597 -87.1503 343° North 331 381 24,000  Level Chicago Center
Wed 10:56:57 PM 41.1542 -87.1611 355° North 339 390 24,000  Level Chicago Center
Wed 10:57:58 PM 41.2475 -87.1739 354° North 341 392 24,000  Level Chicago Center
Wed 10:58:59 PM 41.3594 -87.1864 355° North 340 391 24,000  Level Chicago Center
Wed 11:00:01 PM 41.4542 -87.1992 354° North 344 396 24,000  Level Chicago Center
Wed 11:01:02 PM 41.5469 -87.2106 355° North 341 392 24,000  Level Chicago Center
Wed 11:02:03 PM 41.6408 -87.2217 355° North 341 392 24,000  Level Chicago Center
Wed 11:03:05 PM 41.7350 -87.2342 354° North 343 395 24,000  Level Chicago Center
Wed 11:04:06 PM 41.8281 -87.2447 355° North 339 390 24,000 -738 Level Chicago Center
Wed 11:05:07 PM 41.9197 -87.2569 354° North 335 386 22,500 -1,918 Descending Chicago Center
Wed 11:06:08 PM 42.0283 -87.2697 355° North 330 380 20,100 -1,230 Descending Chicago Center
Wed 11:07:09 PM 42.1064 -87.2792 355° North 286 329 20,000 -49 Descending Chicago Center
Wed 11:08:10 PM 42.1847 -87.2867 356° North 283 326 20,000 -590 Level Chicago Center
Wed 11:09:11 PM 42.2653 -87.2981 354° North 291 335 18,800 -1,268 Descending Chicago Center
Wed 11:10:13 PM 42.3347 -87.3058 355° North 257 296 17,400 -1,415 Descending Chicago Center
Wed 11:11:14 PM 42.4094 -87.3156 355° North 255 293 15,900 -1,426 Descending Chicago Center
Wed 11:12:15 PM 42.4775 -87.3239 355° North 248 285 14,500 -1,475 Descending Chicago Center
Wed 11:13:16 PM 42.5478 -87.3328 355° North 251 289 12,900 -1,820 Descending Chicago Center
Wed 11:14:17 PM 42.6233 -87.3428 354° North 270 311 10,800 -2,098 Descending Chicago Center
Wed 11:15:19 PM 42.6506 -87.4203 296° West 258 297 8,600 -2,049 Descending Chicago Center
Wed 11:16:20 PM 42.6144 -87.5022 239° Southwest 253 291 6,600 -1,918 Descending Chicago Center
Wed 11:17:21 PM 42.5769 -87.5769 236° Southwest 243 280 4,700 -1,230 Descending Chicago Center
Wed 11:18:22 PM 42.5450 -87.6422 236° Southwest 215 247 4,100 -787 Descending Chicago Center
Wed 11:19:23 PM 42.5197 -87.6936 236° Southwest 171 197 3,100 -488 Descending Chicago Center
Wed 11:20:25 PM 42.4972 -87.7397 237° Southwest 148 170 3,100 -341 Level Chicago Center
Wed 11:21:26 PM 42.4750 -87.7833 235° Southwest 131 151 2,400 -443 Descending Chicago Center
Wed 11:22:27 PM 42.4556 -87.8189 233° Southwest 124 143 2,200 -197 Descending Chicago Center
Wed 11:25:00 PM 42.4167 -87.8667 233° Southwest  Level FlightAware Approximate
Wed 11:32:00 PM 42.4222 -87.8679 233° Southwest  Level Estimated
Wed 11:33:00 PM 42.4167 -87.8667 233° Southwest  Level FlightAware Approximate
Wed 11:34:00 PM 42.4222 -87.8679 233° Southwest  Level Estimated
Wed 11:35:00 PM 42.4167 -87.8667 233° Southwest  Level FlightAware Approximate
Wed 11:36:00 PM 42.4222 -87.8679 233° Southwest  Level Estimated
Wed 11:37:00 PM 42.4167 -87.8667 233° Southwest  Level FlightAware Approximate
Wed 11:38:00 PM 42.4222 -87.8679 233° Southwest  Level Estimated
Wed 11:39:00 PM 42.4167 -87.8667 233° Southwest  Level FlightAware Approximate

Login

Don't have an account? Register now (free) for customized features, flight alerts, and more!